sat.trackr.live / text

‹ back to catalog

ONEWEB-0457

NORAD 51647 · 2022-012AB

PAYLOAD ACTIVE UNKNOWN

§ Identity

Operator
Country
UK
Launch date
2022-02-10
Launch site
FRGUI
Launch vehicle
Mass (kg)
RCS (m²)

Purposes: comms

External: N2YO · Heavens-Above · Gunter

§ Orbital elements

Epoch: 2026-09-20T01:55:10.579584Z

Period
109.89 min
Inclination
87.8905°
Eccentricity
0.0001619
Mean motion
13.10373825 rev/d
Perigee alt
1,220.5 km
Apogee alt
1,222.9 km
Semi-major
7,599.9 km
B*
1.8533e-3
RAAN
17.3807°
Arg perigee
113.6570°
Mean anomaly
246.4727°
Rev number
22,177

§ Raw data

ONEWEB-04571 51647U 22012AB  26263.07998356  .00000660  00000+0  18533-2 0  99992 51647  87.8905  17.3807 0001619 113.6570 246.4727 13.10373825221772

JSON: /api/v1/satellites/51647 · /tle

For live sub-satellite position, see the globe view (requires WebGL).

§ Visibility from observer

Set your observer location to see the next 7 days of passes ≥ 10°. The values pass through the URL so the page stays shareable.

No JS? Fill the form by hand. The geolocation button needs JavaScript.